Regional Weather Roundup
Issued by NWS Newport/Morehead, NC

Current Version | Previous Version | Text Only | Print | Product List | Glossary Off
Versions: 1 2 3 4 5 6 7 8 9 10 11 12 13 14 15 16 17 18 19 20 21 22 23 24 25 26 27 28 29 30 31 32 33 34 35 36 37 38 39 40 41 42 43 44 45 46 47 48 49 50
789 ASUS42 KMHX 052325 RWRMHX WEATHER ROUNDUP FOR EASTERN NORTH CAROLINA NATIONAL WEATHER SERVICE NEWPORT/MOREHEAD CITY NC 600 PM EST FRI FEB 05 2016 NOTE: "FAIR" INDICATES FEW OR NO CLOUDS BELOW 12,000 FEET WITH NO SIGNIFICANT WEATHER AND/OR OBSTRUCTIONS TO VISIBILITY NCZ015>017-031-032-045>047-102-103-060000- NORTH COAST CITY SKY/WX TMP DP RH WIND PRES REMARKS EDENTON CLEAR 42 32 70 CALM 30.35R ELIZABETH CITY CLEAR 41 28 60 N9 30.34R KITTY HAWK CLEAR 40 29 65 N8 30.32R MANTEO CLEAR 40 31 70 N12 30.34R $$ NCZ045>047-081-094-103-104-060000- CENTRAL COAST CITY SKY/WX TMP DP RH WIND PRES REMARKS FRISCO CLEAR 42 28 57 N9G22 30.32R SWANQUARTER N/A 41 N/A N/A N1 30.33R $$ NCZ095-097-098-100-101-060000- SOUTHERN COAST CITY SKY/WX TMP DP RH WIND PRES REMARKS BEAUFORT PTCLDY 40 31 70 N7 30.33R CEDAR ISLAND N/A 45 N/A N/A NW18 30.39R JACKSONVILLE PTCLDY 43 29 57 N7 30.33R PINEY ISLAND PTCLDY N/A N/A N/A N8 30.33R WILMINGTON CLEAR 45 28 51 N7 30.34R $$ NCZ011>013-027>030-043-044-078>080-089-090>093-098-060000- COASTAL PLAIN CITY SKY/WX TMP DP RH WIND PRES REMARKS AHOSKIE CLEAR 39 27 63 CALM 30.36R CLINTON CLEAR 45 25 46 CALM 30.36R ELIZABETHTOWN CLEAR 42 28 56 CALM 30.35R GOLDSBORO CLEAR 45 21 39 N5 30.33R GREENVILLE CLEAR 43 28 56 N3 30.35R HAVELOCK CLEAR 44 29 55 N9 30.34R KENANSVILLE N/A 42 26 51 CALM 30.36R KINSTON PTCLDY 41 28 60 CALM 30.35R NEW BERN CLEAR 43 28 55 N6 30.35R RICHLANDS CLEAR 41 27 56 CALM 30.35R ROCKY MOUNT CLEAR 42 22 44 N6 30.34R WASHINGTON CLEAR 41 28 59 CALM 30.35R WHITEVILLE CLEAR 45 25 45 CALM 30.34R $$ AMZ130-135-150-152-154-156-158-170-250-252-270-ANZ085-086-088-633-658-670-060000- MARINE OBSERVATIONS STATION/POSITION TIME TEMP WIND PRES WAVE SWELL AIR SEA DIR/SP/G HT/PER HT/PER (UTC) (F) (DEG/KT/KT) (MB) (FT/S) (FT/S) CHESAPEAKE LIGHT 2300 41 340/ 19/ 20 1027.5 64 E VA BEACH 2250 44 54 340/ 19/ 25 1025.2 10/10 7/10 DUCK 2200 42 45 10/ 16/ 20 1025.2 2 E DUCK 2311 45 N/A 7/ 9 2/11 OREGON INLET 2200 41 48 340/ 12/ 16 1026.3 13E OREGON INLT 2200 46 N/A 10/10 2/11 HATTERAS CG 2200 44 54 350/ 18/ 22 1025.4 DIAMOND BUOY 2250 70 10/ 21/ 27 1025.7 7/10 5/10 CAPE LOOKOUT NOT AVBL BEAUFORT LAB 2200 45 53 10/ 8/ 12 1025.2 30 SE NEW RVR IN 2308 48 65 1025.1 30 SE NEW RVR IN NOT AVBL 27 SE WRIGHTSVLE 2208 49 68 360/ 14/ 21 1024.5 5 SE WRIGHTSVLE 2208 49 55 20/ 12/ 17 1026.4 225 S CAPE HAT 2250 58 69 20/ 21/ 27 N/A 14/ 9 41 SE CHARLESTON 2250 50 67 20/ 16/ 21 1026.1 5/ 6 $$

USA.gov is the U.S. government's official web portal to all federal, state and local government web resources and services.